Regional Weather Roundup
Issued by NWS

Home | Current Version | Previous Version | Graphics & Text | Print | Product List | Glossary On
Versions: 1 2 3 4 5 6 7 8 9 10 11 12 13 14 15 16 17 18 19 20 21 22 23 24 25 26 27 28 29 30 31 32 33 34 35 36 37 38 39 40 41 42 43 44 45 46 47 48 49 50
000
ASUS44 KMEG 141700
RWRTN
TENNESSEE HOURLY STATE WEATHER ROUNDUP
NATIONAL WEATHER SERVICE MEMPHIS TN
1200 PM CDT SUN SEP 14 2014

TNZ002-004-019-021-049-052-054-088>092-141800-
WEST TENNESSEE

CITY           SKY/WX    TMP DP  RH WIND       PRES   REMARKS
MEMPHIS INTL   MOSUNNY   73  56  54 N7        30.25F
NWS MEMPHIS      N/A     70 N/A N/A MISG        N/A
JACKSON        MOSUNNY   70  55  59 VRB3      30.25F
DYERSBURG      SUNNY     70  48  46 N5        30.28F
PARIS          SUNNY     66  52  59 VRB5      30.27S
$$

TNZ008-025-027-028-033-062-065-066-141800-
NORTH MIDDLE TENNESSEE

CITY           SKY/WX    TMP DP  RH WIND       PRES   REMARKS
NASHVILLE      PTSUNNY   73  58  59 N8        30.24F
CLARKSVILLE    SUNNY     70  53  54 N7        30.25F
COOKEVILLE     CLOUDY    72  63  73 N3        30.23F
CROSSVILLE     CLOUDY    71  59  65 W3        30.25S
$$

TNZ061-075-076-078-094-096-097-141800-
SOUTH MIDDLE TENNESSEE

CITY           SKY/WX    TMP DP  RH WIND       PRES   REMARKS
FAYETTEVILLE     N/A     70  59  68 E3        30.22F
WINCHESTER     SUNNY     73  63  68 VRB3      30.22F
SHELBYVILLE    SUNNY     72  63  73 VRB5      30.24F
$$

TNZ017-018-042-046-047-141800-
NORTHEAST TENNESSEE

CITY           SKY/WX    TMP DP  RH WIND       PRES   REMARKS
TRI CITIES     CLOUDY    72  59  63 CALM      30.23F
ELIZABETHTON   CLOUDY    68  57  68 VRB6      30.24S
$$

TNZ012-013-036-069-073-074-141800-
CENTRAL EAST TENNESSEE

CITY           SKY/WX    TMP DP  RH WIND       PRES   REMARKS
KNOXVILLE      PTSUNNY   72  60  66 NW5       30.21F
OAK RIDGE      CLOUDY    72  59  63 VRB3      30.23F
GATLINBURG     PTSUNNY   72  61  68 VRB3      30.21F
$$

TNZ083-085-099-141800-
SOUTHEAST TENNESSEE

CITY           SKY/WX    TMP DP  RH WIND       PRES   REMARKS
CHATTANOOGA    CLOUDY    73  61  65 CALM      30.22F
$$

SKY/WX REPORTED AS FAIR MEANS FEW OR NO CLOUDS BELOW
12 THOUSAND FEET.



USA.gov is the U.S. government's official web portal to all federal, state and local government web resources and services.